Location: Newark
(44.1906°N, 75.9681°W)
Time: 11:22:21
(UTC+00:00)

Envisat - Pass Details

Date: 27 January 2020
Orbit: 764 x 766 km, 98.1° (Epoch: 23 February)

Event Time Altitude Azimuth Distance (km) Brightness Sun altitude
Rises 11:37:31 0° 15° (NNE) 3,242 6.2 -9.2°
Reaches altitude 10° 11:39:51 10° 18° (NNE) 2,311 5.5 -8.8°
Maximum altitude 11:44:55 68° 102° (ESE) 823 3.5 -7.9°
Drops below altitude 10° 11:49:57 10° 185° (S) 2,293 5.7 -7.0°
Sets 11:52:16 0° 188° (S) 3,215 6.4 -6.7°
